TimeEST,TemperatureF,Dew PointF,Humidity,Sea Level PressureIn,VisibilityMPH,Wind Direction,Wind SpeedMPH,Gust SpeedMPH,PrecipitationIn,Events,Conditions,WindDirDegrees,DateUTC
12:15 AM,24.8,1.4,36,29.72,10.0,NW,4.6,-,N/A,,Mostly Cloudy,310,2013-02-17 05:15:00
12:35 AM,24.8,1.4,36,29.71,10.0,WNW,6.9,-,N/A,,Mostly Cloudy,300,2013-02-17 05:35:00
12:55 AM,24.8,1.4,36,29.69,10.0,WNW,4.6,-,N/A,,Scattered Clouds,290,2013-02-17 05:55:00
1:35 AM,24.8,1.4,36,29.68,10.0,WNW,6.9,-,N/A,,Overcast,300,2013-02-17 06:35:00
1:55 AM,24.8,1.4,36,29.69,10.0,NW,6.9,-,N/A,,Overcast,310,2013-02-17 06:55:00
2:15 AM,24.8,1.4,36,29.68,10.0,NW,6.9,-,N/A,,Overcast,310,2013-02-17 07:15:00
2:35 AM,24.8,1.4,36,29.65,10.0,NW,12.7,17.3,N/A,,Overcast,320,2013-02-17 07:35:00
2:55 AM,24.8,1.4,36,29.65,10.0,NW,10.4,-,N/A,,Overcast,310,2013-02-17 07:55:00
3:15 AM,23.0,1.4,39,29.65,10.0,WNW,10.4,-,N/A,,Overcast,290,2013-02-17 08:15:00
3:55 AM,23.0,1.4,39,29.63,10.0,NW,11.5,18.4,N/A,,Overcast,320,2013-02-17 08:55:00
4:15 AM,21.2,1.4,42,29.61,10.0,NW,11.5,17.3,N/A,,Overcast,310,2013-02-17 09:15:00
4:35 AM,21.2,3.2,46,29.62,10.0,NW,9.2,-,N/A,,Overcast,310,2013-02-17 09:35:00
4:55 AM,21.2,5.0,50,29.59,10.0,NW,11.5,-,N/A,,Overcast,310,2013-02-17 09:55:00
5:15 AM,21.2,5.0,50,29.58,10.0,WNW,5.8,-,N/A,,Overcast,290,2013-02-17 10:15:00
5:35 AM,21.2,3.2,46,29.59,10.0,WNW,9.2,-,N/A,,Overcast,290,2013-02-17 10:35:00
5:55 AM,19.4,3.2,49,29.58,10.0,WNW,6.9,-,N/A,,Overcast,300,2013-02-17 10:55:00
6:35 AM,17.6,8.6,68,29.55,3.0,WNW,8.1,17.3,N/A,,Overcast,300,2013-02-17 11:35:00
6:55 AM,17.6,10.4,73,29.53,2.0,WNW,11.5,17.3,N/A,,Overcast,300,2013-02-17 11:55:00
7:15 AM,17.6,10.4,73,29.51,2.0,NW,10.4,21.9,N/A,,Overcast,310,2013-02-17 12:15:00
7:35 AM,17.6,8.6,68,29.50,2.0,WNW,11.5,21.9,N/A,,Overcast,300,2013-02-17 12:35:00
7:55 AM,17.6,8.6,68,29.49,2.0,WNW,9.2,18.4,N/A,,Overcast,300,2013-02-17 12:55:00
8:15 AM,17.6,8.6,68,29.47,2.0,WNW,11.5,19.6,N/A,,Overcast,290,2013-02-17 13:15:00
8:35 AM,17.6,8.6,68,29.45,2.5,WNW,15.0,25.3,N/A,,Overcast,290,2013-02-17 13:35:00
9:15 AM,17.6,6.8,63,29.43,5.0,WNW,13.8,20.7,N/A,,Overcast,290,2013-02-17 14:15:00
9:35 AM,17.6,6.8,63,29.42,5.0,WNW,10.4,20.7,N/A,,Overcast,290,2013-02-17 14:35:00
9:55 AM,17.6,6.8,63,29.41,2.5,WNW,13.8,25.3,N/A,,Overcast,300,2013-02-17 14:55:00
10:15 AM,17.6,6.8,63,29.40,4.0,WNW,15.0,25.3,N/A,,Overcast,300,2013-02-17 15:15:00
10:35 AM,19.4,5.0,54,29.40,3.0,WNW,10.4,26.5,N/A,,Overcast,300,2013-02-17 15:35:00
10:55 AM,19.4,5.0,54,29.40,8.0,WNW,20.7,27.6,N/A,,Overcast,290,2013-02-17 15:55:00
11:15 AM,19.4,5.0,54,29.39,9.0,NW,18.4,26.5,N/A,,Overcast,310,2013-02-17 16:15:00
11:35 AM,19.4,3.2,49,29.38,5.0,WNW,10.4,28.8,N/A,,Overcast,300,2013-02-17 16:35:00
12:15 PM,19.4,3.2,49,29.36,8.0,NW,18.4,29.9,N/A,,Overcast,310,2013-02-17 17:15:00
12:35 PM,19.4,3.2,49,29.36,3.0,WNW,16.1,33.4,N/A,,Mostly Cloudy,300,2013-02-17 17:35:00
12:55 PM,19.4,1.4,46,29.36,9.0,WNW,17.3,28.8,N/A,,Overcast,300,2013-02-17 17:55:00
1:15 PM,19.4,1.4,46,29.37,6.0,WNW,25.3,40.3,N/A,,Overcast,300,2013-02-17 18:15:00
1:35 PM,19.4,-0.4,42,29.37,10.0,NW,23.0,34.5,N/A,,Overcast,310,2013-02-17 18:35:00
1:55 PM,19.4,-0.4,42,29.37,10.0,NW,28.8,42.6,N/A,,Overcast,310,2013-02-17 18:55:00
2:15 PM,19.4,-0.4,42,29.36,10.0,West,12.7,35.7,N/A,,Overcast,280,2013-02-17 19:15:00
2:35 PM,19.4,-0.4,42,29.36,10.0,West,13.8,26.5,N/A,,Overcast,270,2013-02-17 19:35:00
3:35 PM,17.6,-0.4,45,29.38,10.0,West,17.3,28.8,N/A,,Clear,270,2013-02-17 20:35:00
3:55 PM,17.6,-0.4,45,29.39,10.0,West,13.8,24.2,N/A,,Partly Cloudy,270,2013-02-17 20:55:00
4:15 PM,17.6,-2.2,42,29.40,10.0,West,13.8,32.2,N/A,,Partly Cloudy,280,2013-02-17 21:15:00
4:35 PM,15.8,-0.4,49,29.42,10.0,West,13.8,21.9,N/A,,Mostly Cloudy,280,2013-02-17 21:35:00
4:55 PM,15.8,-2.2,45,29.43,10.0,West,13.8,29.9,N/A,,Overcast,270,2013-02-17 21:55:00
5:15 PM,15.8,-0.4,49,29.44,10.0,WNW,12.7,26.5,N/A,,Overcast,290,2013-02-17 22:15:00
5:35 PM,14.0,-2.2,49,29.46,10.0,West,16.1,26.5,N/A,,Overcast,280,2013-02-17 22:35:00
5:55 PM,14.0,-2.2,49,29.46,10.0,WNW,15.0,26.5,N/A,,Overcast,290,2013-02-17 22:55:00
6:15 PM,14.0,-2.2,49,29.47,10.0,West,16.1,29.9,N/A,,Mostly Cloudy,270,2013-02-17 23:15:00
6:35 PM,14.0,-2.2,49,29.48,10.0,West,16.1,24.2,N/A,,Partly Cloudy,270,2013-02-17 23:35:00
6:55 PM,14.0,-0.4,53,29.48,10.0,WNW,12.7,28.8,N/A,,Mostly Cloudy,290,2013-02-17 23:55:00
7:15 PM,15.8,-2.2,45,29.49,10.0,WNW,13.8,32.2,N/A,,Mostly Cloudy,290,2013-02-18 00:15:00
7:35 PM,14.0,-0.4,53,29.49,10.0,West,10.4,20.7,N/A,,Mostly Cloudy,280,2013-02-18 00:35:00
7:55 PM,14.0,-0.4,53,29.49,10.0,West,10.4,21.9,N/A,,Overcast,270,2013-02-18 00:55:00
8:15 PM,14.0,-0.4,53,29.50,10.0,West,13.8,26.5,N/A,,Mostly Cloudy,270,2013-02-18 01:15:00
8:35 PM,14.0,-0.4,53,29.51,10.0,West,16.1,24.2,N/A,,Scattered Clouds,280,2013-02-18 01:35:00
8:55 PM,14.0,-0.4,53,29.51,10.0,West,12.7,27.6,N/A,,Partly Cloudy,270,2013-02-18 01:55:00
9:15 PM,14.0,-0.4,53,29.53,10.0,WNW,13.8,20.7,N/A,,Scattered Clouds,290,2013-02-18 02:15:00
9:35 PM,-9999,-9999,N/A,29.53,10.0,WNW,15.0,28.8,N/A,,Partly Cloudy,290,2013-02-18 02:35:00
9:55 PM,14.0,-2.2,49,29.55,10.0,WNW,20.7,29.9,N/A,,Mostly Cloudy,300,2013-02-18 02:55:00
10:15 PM,14.0,-2.2,49,29.55,10.0,West,18.4,29.9,N/A,,Overcast,280,2013-02-18 03:15:00
10:35 PM,12.2,-2.2,53,29.55,10.0,West,17.3,27.6,N/A,,Mostly Cloudy,270,2013-02-18 03:35:00
10:55 PM,12.2,-0.4,57,29.57,10.0,West,11.5,32.2,N/A,,Partly Cloudy,270,2013-02-18 03:55:00
11:15 PM,12.2,-2.2,53,29.58,10.0,West,20.7,32.2,N/A,,Clear,280,2013-02-18 04:15:00
11:35 PM,12.2,-2.2,53,29.58,10.0,West,28.8,43.7,N/A,,Scattered Clouds,280,2013-02-18 04:35:00
11:55 PM,12.2,-2.2,53,29.60,10.0,WNW,15.0,26.5,N/A,,Mostly Cloudy,290,2013-02-18 04:55:00